{"data":{"norad_id":45449,"intl_designator":"2020-020AB","name":"ONEWEB-0019","alt_names":[],"object_type":"PAYLOAD","status":"ACTIVE","operator":null,"country":"UK","launch_date":"2020-03-21","launch_site_code":"TYMSC","launch_vehicle":null,"mission":null,"orbit_class":"UNKNOWN","rcs_meters":null,"size_class":null,"mass_kg":null,"dimensions":null,"purposes":["comms"],"wikipedia_slug":null,"has_3d_model":false,"image_url":null,"decayed_at":null,"tle_current":{"epoch":"2026-09-19T14:12:11.334240Z","epoch_age_seconds":92955,"freshness":"FRESH","line1":"1 45449U 20020AB  26262.59179785  .00000202  00000+0  53359-3 0  9990","line2":"2 45449  87.8970   2.2899 0001644  94.8993 265.2323 13.11414574314916","mean_motion":13.11414574,"eccentricity":0.0001644,"inclination_deg":87.897,"raan_deg":2.2899,"arg_perigee_deg":94.8993,"mean_anomaly_deg":265.2323,"bstar":0.00053359,"rev_number":31491,"period_min":109.80509356456,"perigee_km":1216.4430994571,"apogee_km":1218.9406079842,"semimajor_km":7595.8288537207,"source":"CELESTRAK","updated_at":"2026-09-20T09:00:44.557543Z"}}}